TOURFACTS.DK  
Stats and Facts from Tour de France.

Tour de France 2018 starts in 225 days
  Riders   Stages   Teams   Summits   Yearly  


 
Search by year

 2017 - St. 21:  14824 starters.
  5131 different riders.
  634 teams.
  2232 stages.
  454 restdays.
  439589.60 km.
  5653 abandonnees.


Top 3
Christopher Froome86:20:55
Rigoberto Uran86:21:49
Romain Bardet86:23:15
Warren Barguil169 pt.
Primoz Roglic80 pt.
Thomas De Gendt64 pt.
Michael Matthews359 pt.
André Greipel234 pt.
Edvald Boasson Hagen220 pt.
Simon Yates86:27:09
Louis Meintjes86:29:15
Emanuel Buchmann86:54:16
Facts from Tour de France 2016
  |   Stages.  |   Stage winners.  |   Days in yellow  |   Average speed.  |   Route.  |   Teams.  |   All riders.  |   Rookies.  |   Withdrawls.  |  

  |   GC.  |   Polka  |   Green  |   White  |   Summits. (In tour)  |   Summits. (Points)  |   Miscellaneous.  |  

Stage 15 on 17 - 07 - 2016
         Owning:    Christopher Froome      Rafal Majka      Peter Sagan      Adam Yates  

Pick a stage:  1 2 3 4 5 6 7 8 9 10 11 12 13 14 15 16 17 18 19 20 21
  Bourg-en-BresseCuloz | Dist: 159.00 km.
Cat: 1Col du BerthiandPOLRafal Majka
10 points
 
Cat: 2Col du SappelFRAThomas Voeckler
5 points
 
Cat: 3Col de PisseloupBELSerge Pauwels
2 points
 
Cat: 3Côte de RochetteBELSerge Pauwels
2 points
 
Cat: HCol du Grand ColombierPOLRafal Majka
25 points
 
Cat: 1Lacets du Grand ColombierPOLRafal Majka
10 points
 

Average speed for all riders in stage:  33,562 km./hr.
    Place:Name:Team:Time:Km/h:
COLJarlinson Pantano GomezCHEIAM Cycling04:24:49  +  00:00:00=36,025 
POLRafal MajkaRUSTinkoff04:24:49  +  00:00:00=36,025 
FRAAlexis VuillermozFRAAg2r La Mondiale04:24:55  +  00:00:06=36,011 
4 SUISébastien ReichenbachFRAFDJ04:24:55  +  00:00:06=36,011 
5 FRAJulian AlaphilippeBELEtixx - Quick Step04:25:11  +  00:00:22=35,975 
6 BELSerge PauwelsZAFDimension Data04:25:14  +  00:00:25=35,968 
7 FRAPierre RollandUSATeam Cannondale Drapac04:25:14  +  00:00:25=35,968 
8 RUSIlnur ZakarinRUSTeam Katusha04:26:19  +  00:01:30=35,822 
9 ESPDaniel NavarroFRACofidis – Solutions Crédits04:26:19  +  00:01:30=35,822 
10 NEDTom-Jelte SlagterUSATeam Cannondale Drapac04:26:57  +  00:02:08=35,737 
11 HRVKristijan DurasekITALampre-Merida04:26:57  +  00:02:08=35,737 
12 POLBartosz HuzarskiDEUBora-Argon 1804:26:59  +  00:02:10=35,733 
13 NEDWout PoelsGBRSky Procycling04:27:56  +  00:03:07=35,606 
14 KENChristopher FroomeGBRSky Procycling04:27:56  +  00:03:07=35,606 
15 COLNairo QuintanaESPMovistar Team04:27:56  +  00:03:07=35,606 
16 ESPAlejandro ValverdeESPMovistar Team04:27:56  +  00:03:07=35,606 
17 FRARomain BardetFRAAg2r La Mondiale04:27:56  +  00:03:07=35,606 
18 AUSRichie PorteUSABMC Racing Team04:27:56  +  00:03:07=35,606 
19 CZERoman KreuzigerRUSTinkoff04:27:56  +  00:03:07=35,606 
20 RSALouis MeintjesITALampre-Merida04:27:56  +  00:03:07=35,606 
21 ENGAdam YatesAUSORICA BikeExchange04:27:56  +  00:03:07=35,606 
22 NEDBauke MollemaUSATrek – Segafredo04:27:56  +  00:03:07=35,606 
23 ITAFabio AruKAZAstana Pro Team04:27:56  +  00:03:07=35,606 
24 ENGDaniel MartinBELEtixx - Quick Step04:27:56  +  00:03:07=35,606 
25 ESPJoaquim RodriguezRUSTeam Katusha04:27:56  +  00:03:07=35,606 
26 SUISteve MorabitoFRAFDJ04:27:56  +  00:03:07=35,606 
27 ESPHaimar ZubeldiaUSATrek – Segafredo04:27:56  +  00:03:07=35,606 
28 PORNelson OliveiraESPMovistar Team04:27:56  +  00:03:07=35,606 
29 WALGeraint ThomasGBRSky Procycling04:27:56  +  00:03:07=35,606 
30 COLSergio Luis HenaoGBRSky Procycling04:27:56  +  00:03:07=35,606 
31 ITADiego RosaKAZAstana Pro Team04:27:56  +  00:03:07=35,606 
32 SLOJan PolancITALampre-Merida04:27:56  +  00:03:07=35,606 
33 FRAThomas VoecklerFRADirect Energie04:27:56  +  00:03:07=35,606 
34 NEDStef ClementCHEIAM Cycling04:29:24  +  00:04:35=35,412 
35 USATejay Van GarderenUSABMC Racing Team04:29:24  +  00:04:35=35,412 
36 ESPMikel NieveGBRSky Procycling04:29:24  +  00:04:35=35,412 
37 ITADomenico PozzovivoFRAAg2r La Mondiale04:29:24  +  00:04:35=35,412 
38 FRARomain SicardFRADirect Energie04:36:49  +  00:12:00=34,463 
39 GEREmanuel BuchmannDEUBora-Argon 1804:36:53  +  00:12:04=34,455 
40 NZLGeorge BennettNLDTeam Lotto NL - Jumbo04:36:53  +  00:12:04=34,455 
41 ESPRubén PlazaAUSORICA BikeExchange04:36:53  +  00:12:04=34,455 
42 URSTanel KangertKAZAstana Pro Team04:36:53  +  00:12:04=34,455 
43 BELJan BakelantsFRAAg2r La Mondiale04:36:53  +  00:12:04=34,455 
44 FRAWarren BarguilDEUTeam Giant Alpecin04:38:38  +  00:13:49=34,239 
45 USAPeter StetinaUSATrek – Segafredo04:38:38  +  00:13:49=34,239 
46 FRAAmaël MoinardUSABMC Racing Team04:38:38  +  00:13:49=34,239 
47 ESPDaniel MorenoESPMovistar Team04:38:38  +  00:13:49=34,239 
48 ESPLuis León SánchezKAZAstana Pro Team04:38:38  +  00:13:49=34,239 
49 FRAMickaël CherelFRAAg2r La Mondiale04:38:38  +  00:13:49=34,239 
50 ITAVincenzo NibaliKAZAstana Pro Team04:38:38  +  00:13:49=34,239 
51 ESPGorka Izaguirre InsaustiESPMovistar Team04:38:38  +  00:13:49=34,239 
52 FRAArthur VichotFRAFDJ04:39:15  +  00:14:26=34,163 
53 FRABrice FeilluFRAFortuneo - Vital Concept04:39:15  +  00:14:26=34,163 
54 FRAAnthony RouxFRAFDJ04:39:15  +  00:14:26=34,163 
55 HRVRobert KiserlovskiRUSTinkoff04:39:15  +  00:14:26=34,163 
56 FRAJérôme CoppelCHEIAM Cycling04:39:15  +  00:14:26=34,163 
57 ESPJon Izaguirre InsaustiESPMovistar Team04:39:15  +  00:14:26=34,163 
58 ESPAlberto LosadaRUSTeam Katusha04:39:15  +  00:14:26=34,163 
59 FRAFabrice JeandesbozFRADirect Energie04:41:00  +  00:16:11=33,950 
60 SUIMichael SchärUSABMC Racing Team04:41:30  +  00:16:41=33,890 
61 GERSimon GeschkeDEUTeam Giant Alpecin04:41:30  +  00:16:41=33,890 
62 NEDTom DumoulinDEUTeam Giant Alpecin04:41:30  +  00:16:41=33,890 
63 LUXBen GastauerFRAAg2r La Mondiale04:43:03  +  00:18:14=33,704 
64 FRAGeoffrey SoupeFRACofidis – Solutions Crédits04:43:51  +  00:19:02=33,609 
65 FRAArnold JeannessonFRACofidis – Solutions Crédits04:43:51  +  00:19:02=33,609 
66 NEDDylan Van BaarleUSATeam Cannondale Drapac04:43:51  +  00:19:02=33,609 
67 LUXFränk SchleckUSATrek – Segafredo04:43:51  +  00:19:02=33,609 
68 FRASylvain ChavanelFRADirect Energie04:43:51  +  00:19:02=33,609 
69 NEDBert-Jan LindemanNLDTeam Lotto NL - Jumbo04:45:52  +  00:21:03=33,372 
70 NEDWilco KeldermanNLDTeam Lotto NL - Jumbo04:45:52  +  00:21:03=33,372 
71 CZEJan BártaDEUBora-Argon 1804:45:52  +  00:21:03=33,372 
72 BELGreg Van AvermaetUSABMC Racing Team04:46:42  +  00:21:53=33,275 
73 BELOliver NaesenCHEIAM Cycling04:46:42  +  00:21:53=33,275 
74 GERMarcus BurghardtUSABMC Racing Team04:46:42  +  00:21:53=33,275 
75 ITADamiano CarusoUSABMC Racing Team04:46:42  +  00:21:53=33,275 
76 AUTGeorg PreidlerDEUTeam Giant Alpecin04:46:42  +  00:21:53=33,275 
77 SUIMartin ElmigerCHEIAM Cycling04:46:42  +  00:21:53=33,275 
78 BELJürgen RoelandtsBELLotto Soudal04:46:42  +  00:21:53=33,275 
79 ERIDaniel TeklehaimanotZAFDimension Data04:46:42  +  00:21:53=33,275 
80 FRAFlorian VachonFRAFortuneo - Vital Concept04:46:42  +  00:21:53=33,275 
81 ETHTsgabu Gebremaryan GrmayITALampre-Merida04:46:42  +  00:21:53=33,275 
82 USABrent BookwalterUSABMC Racing Team04:46:42  +  00:21:53=33,275 
83 AUTPatrick KonradDEUBora-Argon 1804:46:42  +  00:21:53=33,275 
84 ITAPaolo TiralongoKAZAstana Pro Team04:46:42  +  00:21:53=33,275 
85 RSADaryl ImpeyAUSORICA BikeExchange04:46:42  +  00:21:53=33,275 
86 UKRAndriy GrivkoKAZAstana Pro Team04:46:42  +  00:21:53=33,275 
87 DENMichael ValgrenRUSTinkoff04:46:42  +  00:21:53=33,275 
88 NEDLaurens ten DamDEUTeam Giant Alpecin04:46:42  +  00:21:53=33,275 
89 FRAPierre-Luc PérichonFRAFortuneo - Vital Concept04:46:42  +  00:21:53=33,275 
90 FRAJérémy RoyFRAFDJ04:46:42  +  00:21:53=33,275 
91 KAZAlexey LutsenkoKAZAstana Pro Team04:46:42  +  00:21:53=33,275 
92 COLWinner AnaconaESPMovistar Team04:46:42  +  00:21:53=33,275 
93 AUSRohan DennisUSABMC Racing Team04:46:42  +  00:21:53=33,275 
94 ESPMikel Landa MeanaGBRSky Procycling04:46:42  +  00:21:53=33,275 
95 ESPImanol ErvitiESPMovistar Team04:46:42  +  00:21:53=33,275 
96 BLRVasil KiryienkaGBRSky Procycling04:46:42  +  00:21:53=33,275 
97 FRACyril LemoineFRACofidis – Solutions Crédits04:46:42  +  00:21:53=33,275 
98 IRLChristopher Juul JensenAUSORICA BikeExchange04:46:42  +  00:21:53=33,275 
99 BELThomas De GendtBELLotto Soudal04:47:29  +  00:22:40=33,185 
100 JPNYukiya ArashiroITALampre-Merida04:47:29  +  00:22:40=33,185 
101 GERPaul MartensNLDTeam Lotto NL - Jumbo04:47:29  +  00:22:40=33,185 
102 AUSAdam HansenBELLotto Soudal04:47:29  +  00:22:40=33,185 
103 ESPLuis Angel MateFRACofidis – Solutions Crédits04:47:29  +  00:22:40=33,185 
104 BELMaarten WynantsNLDTeam Lotto NL - Jumbo04:49:24  +  00:24:35=32,965 
105 FRANicolas EdetFRACofidis – Solutions Crédits04:50:18  +  00:25:29=32,863 
106 SUIReto HollensteinCHEIAM Cycling04:51:21  +  00:26:32=32,744 
107 FRATony GallopinBELLotto Soudal04:51:21  +  00:26:32=32,744 
108 ESPMarkel IrizarUSATrek – Segafredo04:51:21  +  00:26:32=32,744 
109 CZEPetr VakocBELEtixx - Quick Step04:51:21  +  00:26:32=32,744 
110 PORRui CostaITALampre-Merida04:51:21  +  00:26:32=32,744 
111 NEDRoy CurversDEUTeam Giant Alpecin04:51:21  +  00:26:32=32,744 
112 FRAWilliam BonnetFRAFDJ04:51:21  +  00:26:32=32,744 
113 BELJulien VermoteBELEtixx - Quick Step04:51:21  +  00:26:32=32,744 
114 FRAChristophe LaporteFRACofidis – Solutions Crédits04:51:21  +  00:26:32=32,744 
115 NEDAlbert TimmerDEUTeam Giant Alpecin04:51:21  +  00:26:32=32,744 
116 CANAntoine DuchesneFRADirect Energie04:51:21  +  00:26:32=32,744 
117 USALawson CraddockUSATeam Cannondale Drapac04:51:21  +  00:26:32=32,744 
118 FRAAnthony DelaplaceFRAFortuneo - Vital Concept04:51:21  +  00:26:32=32,744 
119 FRAArmindo FonsecaFRAFortuneo - Vital Concept04:51:21  +  00:26:32=32,744 
120 DENChris Anker SørensenFRAFortuneo - Vital Concept04:51:21  +  00:26:32=32,744 
121 ARGEduardo SepulvedaFRAFortuneo - Vital Concept04:51:21  +  00:26:32=32,744 
122 ITAMatteo BonoITALampre-Merida04:51:21  +  00:26:32=32,744 
123 FRACyril GautierFRAAg2r La Mondiale04:51:21  +  00:26:32=32,744 
124 GERRobert WagnerNLDTeam Lotto NL - Jumbo04:51:21  +  00:26:32=32,744 
125 AUTMarco HallerRUSTeam Katusha04:51:21  +  00:26:32=32,744 
126 ESPAngel ViciosoRUSTeam Katusha04:51:21  +  00:26:32=32,744 
127 AUSMichael MatthewsAUSORICA BikeExchange04:52:56  +  00:28:07=32,567 
128 SUIGregory RastUSATrek – Segafredo04:52:56  +  00:28:07=32,567 
129 NEDRamon SinkeldamDEUTeam Giant Alpecin04:52:56  +  00:28:07=32,567 
130 POLMaciej BodnarRUSTinkoff04:52:56  +  00:28:07=32,567 
131 NOREdvald Boasson HagenZAFDimension Data04:52:56  +  00:28:07=32,567 
132 WALLuke RoweGBRSky Procycling04:52:56  +  00:28:07=32,567 
133 ENGIan StannardGBRSky Procycling04:52:56  +  00:28:07=32,567 
134 AUSLuke DurbridgeAUSORICA BikeExchange04:52:56  +  00:28:07=32,567 
135 SLOLuka PibernikITALampre-Merida04:52:56  +  00:28:07=32,567 
136 AUSMathew HaymanAUSORICA BikeExchange04:52:56  +  00:28:07=32,567 
137 SLOKristjan KorenUSATeam Cannondale Drapac04:52:56  +  00:28:07=32,567 
138 RSAReinardt Janse Van RensburgZAFDimension Data04:52:56  +  00:28:07=32,567 
139 NEDTimo RoosenNLDTeam Lotto NL - Jumbo04:52:56  +  00:28:07=32,567 
140 GERTony MartinBELEtixx - Quick Step04:52:56  +  00:28:07=32,567 
141 ITAMatteo TosattoRUSTinkoff04:52:56  +  00:28:07=32,567 
142 ITAOscar GattoRUSTinkoff04:52:56  +  00:28:07=32,567 
143 ERINatnael Teweldemedhin BerhaneZAFDimension Data04:52:56  +  00:28:07=32,567 
144 GERPaul VossDEUBora-Argon 1804:52:56  +  00:28:07=32,567 
145 BELJasper StuyvenUSATrek – Segafredo04:52:56  +  00:28:07=32,567 
146 FRAYohann GèneFRADirect Energie04:52:56  +  00:28:07=32,567 
147 FRABryan CoquardFRADirect Energie04:52:56  +  00:28:07=32,567 
148 SUIFabian CancellaraUSATrek – Segafredo04:52:56  +  00:28:07=32,567 
149 SVKPeter SaganRUSTinkoff04:53:02  +  00:28:13=32,556 
150 BELIljo KeisseBELEtixx - Quick Step04:53:59  +  00:29:10=32,451 
151 IOMMark CavendishZAFDimension Data04:53:59  +  00:29:10=32,451 
152 ITAFabio SabatiniBELEtixx - Quick Step04:53:59  +  00:29:10=32,451 
153 GERMarcel SiebergBELLotto Soudal04:53:59  +  00:29:10=32,451 
154 SUIMichael AlbasiniAUSORICA BikeExchange04:53:59  +  00:29:10=32,451 
155 ITAJacopo GuarnieriRUSTeam Katusha04:53:59  +  00:29:10=32,451 
156 NEDDylan GroenewegenNLDTeam Lotto NL - Jumbo04:53:59  +  00:29:10=32,451 
157 FRAAdrien PetitFRADirect Energie04:53:59  +  00:29:10=32,451 
158 ITACesare BenedettiDEUBora-Argon 1804:53:59  +  00:29:10=32,451 
159 DENLars BakBELLotto Soudal04:53:59  +  00:29:10=32,451 
160 GERAndré GreipelBELLotto Soudal04:53:59  +  00:29:10=32,451 
161 ENGStephen CummingsZAFDimension Data04:53:59  +  00:29:10=32,451 
162 NORVegard BreenFRAFortuneo - Vital Concept04:53:59  +  00:29:10=32,451 
163 FRASamuel DumoulinFRAAg2r La Mondiale04:53:59  +  00:29:10=32,451 
164 USAAlex HowesUSATeam Cannondale Drapac04:53:59  +  00:29:10=32,451 
165 SLOBorut BozicFRACofidis – Solutions Crédits04:53:59  +  00:29:10=32,451 
166 FRA Alexis GougeardFRAAg2r La Mondiale04:53:59  +  00:29:10=32,451 
167 BRAMaximilano RichezeBELEtixx - Quick Step04:53:59  +  00:29:10=32,451 
168 GERAndreas SchillingerDEUBora-Argon 1804:53:59  +  00:29:10=32,451 
169 NORAlexander KristoffRUSTeam Katusha04:53:59  +  00:29:10=32,451 
170 URSRamunas NavardauskasUSATeam Cannondale Drapac04:53:59  +  00:29:10=32,451 
171 AUTBernhard EiselZAFDimension Data04:53:59  +  00:29:10=32,451 
172 ITADavide CimolaiITALampre-Merida04:53:59  +  00:29:10=32,451 
173 NZLGregory HendersonBELLotto Soudal04:53:59  +  00:29:10=32,451 
174 BELSam BennettDEUBora-Argon 1804:53:59  +  00:29:10=32,451 
175 NZLShane ArchboldDEUBora-Argon 1804:53:59  +  00:29:10=32,451 
176 BELSep VanmarckeNLDTeam Lotto NL - Jumbo04:53:59  +  00:29:10=32,451 
177 NORSondre Holst EngerCHEIAM Cycling04:53:59  +  00:29:10=32,451 
178 GERJohn DegenkolbDEUTeam Giant Alpecin04:53:59  +  00:29:10=32,451 
179 GERMarcel KittelBELEtixx - Quick Step04:53:59  +  00:29:10=32,451 
180 ENGDaniel McLayFRAFortuneo - Vital Concept04:56:34  +  00:31:45=32,168 

Withdrawls: 3
 
Rider
Team
Reason
15  ESPJesus HerradaESPMovistar TeamDid not finish
101  IOMMark CavendishZAFDimension DataDid not start
164  BELJens DebusschereBELLotto SoudalDid not start

Todays birthdays.

1873  Charles Perraud
1890  Marcel Perriere
1896  Arthur Targez
1903  François Menta
1911  Emil Kijewski
1937  Rudolf Hauser
1942  Johny Schleck
1943  Mario Anni
1947  Fernando Plaza
1956  Jorge Ruiz
1959  Fabio Parra Pinto
1965  José Roncancio
1967  Roland Meier
1970  Daniele Sgnaolin